VE1DX Weather Reports


time (UTC)temp
C
wind
direction
speed
KPH
gust
KPH
rain 1hr
cm
rain 24hr
cm
rain mn
cm
humidity
%
barometer
mb
20260508132515 12 0.0 1.6 0.00 1.50 0.00 77 1002.5
20260508132016 12 23 1.6 4.8 0.00 1.50 0.00 77 1002.4
20260508131515 12 0.0 1.6 0.00 1.50 0.00 79 1002.5
20260508131015 12 293 1.6 3.2 0.00 1.50 0.00 78 1002.5
20260508130516 12 315 1.6 3.2 0.00 1.52 0.00 79 1002.6
20260508130016 12 0.0 3.2 0.00 1.52 0.00 80 1002.5
20260508125515 11 0.0 1.6 0.00 1.52 0.00 81 1002.6
20260508125015 11 315 1.6 3.2 0.00 1.52 0.00 82 1002.7
20260508124516 11 293 1.6 3.2 0.00 1.52 0.00 82 1002.7
20260508124015 11 293 1.6 4.8 0.00 1.52 0.00 83 1002.7
20260508123515 11 293 3.2 4.8 0.00 1.52 0.00 83 1002.7
20260508123016 10 293 1.6 4.8 0.00 1.55 0.00 84 1002.6
20260508122515 10 293 3.2 8.0 0.00 1.55 0.00 84 1002.6
20260508122015 10 315 3.2 6.4 0.00 1.55 0.00 85 1002.5
20260508121516 10 338 1.6 8.0 0.00 1.55 0.00 86 1002.5
20260508121016 10 23 3.2 6.4 0.00 1.55 0.00 86 1002.5
20260508120517 10 338 3.2 6.4 0.00 1.55 0.00 88 1002.4
20260508120016 9 338 3.2 6.4 0.00 1.55 0.00 88 1002.4
20260508115515 9 0 4.8 8.0 0.00 1.55 0.00 89 1002.4
20260508115016 9 0 3.2 6.4 0.00 1.57 0.00 90 1002.4
20260508114516 9 0 4.8 9.7 0.00 1.60 0.00 91 1002.5
20260508114015 8 23 1.6 4.8 0.00 1.60 0.00 92 1002.5
20260508113515 8 23 1.6 3.2 0.00 1.63 0.00 93 1002.5
20260508113016 8 0 3.2 6.4 0.00 1.65 0.00 94 1002.4
20260508112515 8 0 3.2 8.0 0.00 1.65 0.00 94 1002.5
20260508112015 8 0 4.8 9.7 0.00 1.65 0.00 94 1002.5
20260508111516 7 0 3.2 8.0 0.00 1.70 0.00 94 1002.5
20260508111016 7 0 3.2 4.8 0.00 1.73 0.00 94 1002.5
20260508110515 7 0 4.8 8.0 0.00 1.75 0.00 94 1002.5
20260508110016 7 338 4.8 8.0 0.00 1.78 0.00 94 1002.5
20260508105515 7 0 3.2 8.0 0.00 1.83 0.00 94 1002.4
20260508105015 6 0 3.2 6.4 0.00 1.83 0.00 94 1002.4
20260508104515 6 0 4.8 6.4 0.00 1.83 0.00 94 1002.4
20260508104015 6 0 3.2 4.8 0.00 1.85 0.00 94 1002.3
20260508103515 6 0 1.6 4.8 0.00 1.85 0.00 94 1002.3
20260508103015 6 0.0 3.2 0.00 1.85 0.00 94 1002.4
20260508102516 6 0 1.6 3.2 0.00 1.88 0.00 94 1002.3
20260508102016 6 0 1.6 4.8 0.00 1.88 0.00 94 1002.2
20260508101515 5 0 1.6 4.8 0.00 1.88 0.00 94 1002.2
20260508101015 5 0 1.6 3.2 0.00 1.88 0.00 94 1002.3
20260508100516 5 338 1.6 3.2 0.00 1.88 0.00 94 1002.2
20260508100016 5 0.0 0.0 0.00 1.88 0.00 94 1002.3
20260508095515 4 0.0 0.0 0.00 1.88 0.00 94 1002.3
20260508095015 4 0.0 0.0 0.00 1.88 0.00 94 1002.2
20260508094515 4 0.0 0.0 0.00 1.91 0.00 94 1002.2
20260508094016 4 0.0 0.0 0.00 1.93 0.00 94 1002.1
20260508093515 4 0.0 0.0 0.00 1.98 0.00 94 1002.1
20260508093016 4 0.0 0.0 0.00 2.01 0.00 94 1002.2
20260508092515 4 0.0 0.0 0.00 2.03 0.00 94 1002.2
20260508092015 5 0.0 0.0 0.00 2.03 0.00 94 1002.2
20260508091515 5 0.0 0.0 0.00 2.03 0.00 94 1002.3
20260508091016 5 0.0 0.0 0.00 2.06 0.00 94 1002.2
20260508090515 5 0.0 0.0 0.00 2.06 0.00 94 1002.2
20260508090015 5 0.0 0.0 0.00 2.06 0.00 94 1002.2
20260508085515 5 0.0 0.0 0.00 2.08 0.00 94 1002.2
20260508085016 5 0.0 0.0 0.00 2.08 0.00 94 1002.1
20260508084515 4 0.0 0.0 0.00 2.08 0.00 94 1002.0
20260508084015 4 0.0 0.0 0.00 2.08 0.00 94 1001.9
20260508083516 4 0.0 0.0 0.00 2.08 0.00 94 1001.9
20260508083016 4 0.0 0.0 0.00 2.08 0.00 94 1002.0
20260508082515 4 0.0 0.0 0.00 2.08 0.00 94 1002.1
20260508082015 4 0.0 0.0 0.00 2.08 0.00 94 1002.1
20260508081515 4 0.0 0.0 0.00 2.08 0.00 94 1002.1
20260508081016 5 0.0 0.0 0.00 2.08 0.00 94 1001.9
20260508080515 4 0.0 0.0 0.00 2.08 0.00 94 1002.0
20260508080015 4 0.0 0.0 0.00 2.08 0.00 94 1002.0
20260508075517 4 0.0 0.0 0.00 2.08 0.00 94 1002.1
20260508075016 4 0.0 0.0 0.00 2.08 0.00 94 1002.1
20260508074515 4 0.0 0.0 0.00 2.08 0.00 94 1002.1
20260508074015 4 0.0 0.0 0.00 2.08 0.00 94 1002.2
20260508073515 4 0.0 0.0 0.00 2.08 0.00 94 1002.1
20260508073015 4 0.0 0.0 0.00 2.08 0.00 94 1001.8
20260508072515 4 0.0 0.0 0.00 2.08 0.00 94 1001.9
20260508072015 4 0.0 0.0 0.00 2.08 0.00 94 1002.0
20260508071515 5 0.0 0.0 0.00 2.08 0.00 94 1002.0
20260508071015 5 0.0 1.6 0.00 2.08 0.00 94 1001.9
20260508070515 5 0 3.2 4.8 0.00 2.08 0.00 94 1001.7
20260508070015 5 0.0 0.0 0.00 2.08 0.00 94 1001.8
20260508065515 5 0.0 0.0 0.00 2.08 0.00 94 1002.0
20260508065015 5 0.0 0.0 0.00 2.08 0.00 94 1002.1
20260508064515 5 0.0 0.0 0.00 2.08 0.00 94 1002.2
20260508064017 5 0.0 0.0 0.00 2.08 0.00 94 1002.0
20260508063515 5 0.0 0.0 0.00 2.08 0.00 94 1001.9
20260508063015 5 0.0 0.0 0.00 2.08 0.00 94 1001.8
20260508062515 5 0.0 0.0 0.00 2.08 0.00 94 1001.8
20260508062016 6 0.0 0.0 0.00 2.08 0.00 94 1001.9
20260508061517 6 0.0 0.0 0.00 2.08 0.00 94 1001.9
20260508061016 6 0.0 0.0 0.00 2.08 0.00 94 1002.3
20260508060515 6 0.0 0.0 0.00 2.08 0.00 94 1002.3
20260508060017 6 0.0 0.0 0.00 2.08 0.00 94 1002.2
20260508055516 6 0.0 0.0 0.00 2.08 0.00 94 1002.1
20260508055016 6 0.0 0.0 0.00 2.08 0.00 94 1002.0
20260508054516 6 0.0 0.0 0.00 2.08 0.00 94 1001.9
20260508054016 6 0.0 0.0 0.00 2.08 0.00 94 1001.9
20260508053517 6 0.0 0.0 0.00 2.08 0.00 94 1002.0
20260508053017 6 0.0 0.0 0.00 2.08 0.00 94 1002.2
20260508052516 6 0.0 0.0 0.00 2.08 0.00 94 1002.4
20260508052016 6 0.0 3.2 0.00 2.08 0.00 94 1002.5
20260508051515 7 0.0 3.2 0.00 2.08 0.00 94 1002.3
20260508051015 7 0.0 0.0 0.00 2.08 0.00 94 1002.5
20260508050516 7 0.0 0.0 0.00 2.08 0.00 94 1002.5
20260508050015 7 0.0 0.0 0.00 2.08 0.00 94 1002.5
20260508045515 7 0.0 0.0 0.00 2.08 0.00 94 1002.6
20260508045016 7 0.0 0.0 0.00 2.08 0.00 94 1002.6
20260508044515 7 0.0 0.0 0.00 2.08 0.00 94 1002.6
20260508044016 7 0.0 0.0 0.00 2.08 0.00 94 1002.7
20260508043515 7 0.0 0.0 0.00 2.08 0.00 94 1002.6
20260508043016 7 0.0 0.0 0.00 2.08 0.00 94 1002.7
20260508042515 7 0.0 0.0 0.00 2.08 0.00 94 1002.8
20260508042015 7 0.0 0.0 0.00 2.08 0.00 94 1002.7
20260508041515 7 0.0 0.0 0.00 2.08 0.00 94 1002.8
20260508041015 7 0.0 0.0 0.00 2.08 0.00 94 1002.7
20260508040516 7 0.0 0.0 0.00 2.08 0.00 94 1002.7
20260508040015 7 0.0 0.0 0.00 2.08 0.00 94 1002.7
20260508035515 8 0.0 0.0 0.00 2.08 0.00 94 1002.5
20260508035015 8 0.0 0.0 0.00 2.08 0.00 94 1002.6
20260508034515 8 0.0 0.0 0.00 2.08 0.00 94 1002.6
20260508034015 8 0.0 0.0 0.00 2.08 0.00 94 1002.5
20260508033516 8 0.0 0.0 0.00 2.08 0.00 94 1002.7
20260508033015 8 0.0 0.0 0.00 2.08 0.00 94 1002.8
20260508032516 8 0.0 0.0 0.00 2.08 0.00 94 1002.9
20260508032015 8 0.0 0.0 0.00 2.08 0.00 94 1003.0
20260508031515 8 0.0 0.0 0.00 2.08 0.00 94 1002.8
20260508031016 8 0.0 0.0 0.00 2.08 0.00 94 1002.8
20260508030515 8 0.0 0.0 0.00 2.08 0.00 94 1002.8
20260508030015 8 0.0 0.0 0.00 2.08 0.00 94 1002.7
20260508025516 8 0.0 0.0 0.00 2.08 2.08 94 1002.9
20260508025016 8 0.0 0.0 0.00 2.08 2.08 94 1002.8
20260508024516 8 0.0 0.0 0.00 2.08 2.08 94 1002.8
20260508024016 8 0.0 0.0 0.00 2.08 2.08 94 1002.9
20260508023516 8 0.0 0.0 0.00 2.08 2.08 94 1003.0
20260508023016 8 0.0 0.0 0.00 2.08 2.08 94 1002.9
20260508022516 8 0.0 0.0 0.00 2.08 2.08 94 1002.9
20260508022017 8 0.0 0.0 0.00 2.08 2.08 94 1003.0
20260508021517 8 0.0 0.0 0.00 2.08 2.08 94 1002.9
20260508021016 8 0.0 0.0 0.00 2.08 2.08 94 1002.9
20260508020516 8 0.0 0.0 0.00 2.08 2.08 94 1002.8
20260508020016 8 0.0 0.0 0.00 2.08 2.08 94 1002.9
20260508015516 8 0.0 0.0 0.00 2.08 2.08 94 1002.9
20260508015016 9 0.0 0.0 0.00 2.08 2.08 94 1003.1
20260508014517 9 0.0 0.0 0.00 2.08 2.08 94 1003.0
20260508014016 9 0.0 0.0 0.00 2.08 2.08 94 1003.1
20260508013516 9 0.0 0.0 0.00 2.08 2.08 94 1003.0
20260508013016 9 0.0 0.0 0.00 2.08 2.08 94 1002.9
20260508012516 9 0.0 0.0 0.00 2.08 2.08 94 1003.2
20260508012016 9 0.0 0.0 0.00 2.08 2.08 94 1003.0
20260508011516 9 0.0 0.0 0.00 2.08 2.08 94 1002.9
20260508011016 10 0.0 0.0 0.00 2.08 2.08 94 1002.9
20260508010516 10 0.0 0.0 0.00 2.08 2.08 94 1002.8
20260508010016 10 0.0 0.0 0.00 2.08 2.08 94 1002.8
20260508005516 10 0.0 0.0 0.00 2.08 2.08 94 1002.8
20260508005016 10 0.0 0.0 0.00 2.08 2.08 94 1002.8
20260508004516 10 0.0 0.0 0.00 2.08 2.08 94 1002.7
20260508004016 10 0.0 0.0 0.00 2.08 2.08 94 1002.5
20260508003516 10 0.0 0.0 0.00 2.08 2.08 94 1002.7
20260508003016 10 0.0 0.0 0.00 2.08 2.08 94 1002.6
20260508002516 11 0.0 0.0 0.00 2.08 2.08 94 1002.4
20260508002016 11 0.0 0.0 0.00 2.08 2.08 94 1002.5
20260508001516 11 0.0 0.0 0.00 2.08 2.08 94 1002.2
20260508001016 11 0.0 0.0 0.00 2.08 2.08 94 1002.1
20260508000516 11 0.0 0.0 0.00 2.08 2.08 94 1002.0
20260508000016 11 0.0 0.0 0.00 2.08 2.08 94 1002.1
20260507235516 11 0.0 1.6 0.00 2.08 2.08 94 1002.2
20260507235016 11 23 1.6 3.2 0.00 2.08 2.08 94 1002.2
20260507234516 11 0 1.6 3.2 0.00 2.08 2.08 94 1002.3
20260507234016 11 338 3.2 8.0 0.00 2.08 2.08 94 1002.3
20260507233516 11 0.0 1.6 0.00 2.08 2.08 94 1002.2
20260507233016 11 0.0 0.0 0.00 2.08 2.08 94 1002.2
20260507232516 11 0.0 0.0 0.00 2.08 2.08 94 1002.1
20260507232016 11 0.0 0.0 0.00 2.08 2.08 94 1002.1
20260507231516 11 0.0 0.0 0.00 2.08 2.08 94 1002.1
20260507231016 11 0.0 0.0 0.00 2.08 2.08 94 1002.0
20260507230516 11 0.0 0.0 0.00 2.08 2.08 94 1001.9
20260507230016 11 0.0 0.0 0.00 2.08 2.08 94 1001.9
20260507225516 11 0.0 0.0 0.00 2.08 2.08 94 1001.8
20260507225016 11 0.0 0.0 0.00 2.08 2.08 94 1001.9
20260507224516 11 0.0 0.0 0.00 2.08 2.08 94 1002.0
20260507224016 11 0.0 0.0 0.00 2.08 2.08 94 1001.9
20260507223516 11 0.0 0.0 0.00 2.08 2.08 94 1001.9
20260507223016 11 0.0 0.0 0.00 2.08 2.08 94 1001.9
20260507222516 11 0.0 0.0 0.00 2.08 2.08 94 1002.0
20260507222016 11 0.0 0.0 0.00 2.08 2.08 94 1002.0
20260507221516 11 0.0 0.0 0.00 2.08 2.08 94 1002.0
20260507221016 11 0.0 0.0 0.00 2.08 2.08 94 1002.0
20260507220516 11 0.0 0.0 0.00 2.08 2.08 94 1002.1
20260507220016 11 0.0 0.0 0.00 2.08 2.08 94 1002.2
20260507215516 11 0.0 1.6 0.00 2.08 2.08 94 1002.2
20260507215016 11 0.0 1.6 0.00 2.08 2.08 94 1002.0
20260507214516 11 0.0 3.2 0.00 2.08 2.08 94 1002.0
20260507214016 11 0.0 0.0 0.00 2.08 2.08 94 1001.9
20260507213516 11 0.0 1.6 0.00 2.08 2.08 94 1001.9
20260507213016 11 0.0 3.2 0.00 2.08 2.08 94 1001.7
20260507212516 11 0.0 3.2 0.00 2.08 2.08 94 1001.8
20260507212016 11 0.0 1.6 0.00 2.08 2.08 94 1001.9
20260507211516 11 0.0 3.2 0.00 2.08 2.08 94 1002.0
20260507211016 11 0.0 0.0 0.00 2.08 2.08 94 1002.1
20260507210516 11 0.0 0.0 0.00 2.08 2.08 94 1002.0
20260507210016 11 0.0 1.6 0.00 2.08 2.08 94 1002.0
20260507205516 11 225 1.6 8.0 0.00 2.08 2.08 94 1002.1
20260507205016 11 225 3.2 8.0 0.00 2.08 2.08 94 1002.0
20260507204516 11 248 1.6 6.4 0.00 2.08 2.08 94 1002.1
20260507204016 11 248 1.6 8.0 0.00 2.08 2.08 94 1002.2
20260507203516 11 270 1.6 4.8 0.00 2.08 2.08 94 1002.1
20260507203016 11 0.0 1.6 0.00 2.08 2.08 94 1002.0
20260507202516 11 0.0 3.2 0.00 2.08 2.08 94 1002.0
20260507202016 11 225 1.6 6.4 0.00 2.08 2.08 94 1002.0
20260507201516 11 0.0 0.0 0.00 2.08 2.08 94 1002.0
20260507201016 11 0.0 4.8 0.00 2.08 2.08 94 1002.1
20260507200516 11 0.0 1.6 0.00 2.08 2.08 94 1002.1
20260507200016 11 225 1.6 4.8 0.00 2.08 2.08 94 1002.2
20260507195516 11 225 1.6 6.4 0.00 2.08 2.08 94 1002.3
20260507195016 11 225 1.6 4.8 0.00 2.08 2.08 94 1002.2
20260507194516 10 0.0 0.0 0.00 2.08 2.08 94 1002.3
20260507194016 10 0.0 0.0 0.00 2.08 2.08 94 1002.4
20260507193516 10 0.0 0.0 0.00 2.08 2.08 94 1002.4
20260507193016 10 225 1.6 4.8 0.00 2.08 2.08 94 1002.6
20260507192516 9 0.0 1.6 0.00 2.08 2.08 94 1002.5
20260507192016 9 135 1.6 3.2 0.03 2.08 2.08 94 1002.2
20260507191516 9 0.0 3.2 0.03 2.08 2.08 94 1002.2
20260507191016 9 135 1.6 4.8 0.03 2.08 2.08 94 1002.3
20260507190515 8 135 3.2 6.4 0.03 2.08 2.08 94 1002.1
20260507190016 8 135 1.6 4.8 0.03 2.08 2.08 94 1002.2
20260507185516 8 113 1.6 3.2 0.03 2.08 2.08 94 1002.4
20260507185016 8 135 1.6 6.4 0.05 2.08 2.08 94 1002.5
20260507184516 9 113 1.6 8.0 0.05 2.08 2.08 94 1002.7
20260507184016 9 135 1.6 4.8 0.05 2.08 2.08 94 1002.5
20260507183516 9 225 1.6 4.8 0.05 2.08 2.08 94 1002.3
20260507183016 9 135 1.6 8.0 0.08 2.08 2.08 94 1002.0
20260507182516 9 158 3.2 8.0 0.13 2.08 2.08 94 1002.1
20260507182016 9 225 1.6 12.9 0.10 2.06 2.06 94 1002.2
20260507181516 9 158 1.6 6.4 0.10 2.06 2.06 94 1001.3
20260507181016 9 158 1.6 9.7 0.10 2.06 2.06 94 1001.1
20260507180516 8 135 3.2 6.4 0.10 2.06 2.06 94 1001.2
20260507180016 8 135 4.8 11.3 0.15 2.06 2.06 94 1001.4
20260507175516 8 135 3.2 8.0 0.15 2.06 2.06 94 1002.0
20260507175016 8 135 3.2 8.0 0.15 2.03 2.03 94 1002.3
20260507174516 8 113 1.6 6.4 0.15 2.03 2.03 94 1002.6
20260507174016 8 113 4.8 11.3 0.15 2.03 2.03 94 1002.8
20260507173515 8 158 3.2 6.4 0.15 2.03 2.03 94 1003.3
20260507173016 8 135 3.2 6.4 0.15 2.01 2.01 94 1003.8
20260507172516 8 158 3.2 6.4 0.10 1.96 1.96 94 1004.0
20260507172016 8 135 3.2 8.0 0.15 1.96 1.96 94 1003.7
20260507171516 9 135 3.2 9.7 0.18 1.96 1.96 94 1003.2
20260507171016 9 158 1.6 8.0 0.30 1.96 1.96 94 1003.4
20260507170516 9 135 3.2 8.0 0.43 1.96 1.96 94 1003.5
20260507170016 9 135 1.6 4.8 0.58 1.93 1.93 94 1003.6
20260507165515 9 135 1.6 4.8 0.76 1.91 1.91 94 1003.8
20260507165016 9 158 1.6 4.8 0.79 1.88 1.88 94 1003.9
20260507164516 9 0.0 4.8 0.89 1.88 1.88 94 1003.4
20260507164016 9 135 1.6 4.8 0.97 1.88 1.88 94 1003.4
20260507163516 9 0.0 1.6 1.04 1.85 1.85 94 1003.6
20260507163016 9 135 1.6 3.2 1.09 1.85 1.85 94 1003.6
20260507162516 9 158 1.6 4.8 1.09 1.85 1.85 94 1003.5
20260507162016 9 135 1.6 8.0 1.09 1.83 1.83 94 1003.4
20260507161516 9 113 1.6 4.8 1.07 1.78 1.78 94 1004.0
20260507161016 9 135 1.6 4.8 0.97 1.65 1.68 94 1004.6
20260507160516 9 135 1.6 4.8 0.81 1.52 1.52 94 1005.0
20260507160015 9 0.0 4.8 0.66 1.35 1.35 94 1004.8
20260507155516 9 0.0 1.6 0.48 1.14 1.14 94 1004.3
20260507155016 9 0.0 3.2 0.43 1.09 1.09 94 1004.3
20260507154516 9 113 1.6 4.8 0.36 0.99 0.99 94 1004.6
20260507154016 9 135 1.6 3.2 0.30 0.91 0.91 94 1004.3
20260507153516 9 203 1.6 8.0 0.20 0.81 0.81 94 1004.7
20260507153015 9 0.0 3.2 0.15 0.79 0.79 94 1004.7
20260507152516 9 135 1.6 4.8 0.15 0.76 0.76 94 1004.9
20260507152016 9 225 1.6 9.7 0.13 0.74 0.74 94 1005.3
20260507151516 9 135 1.6 11.3 0.10 0.71 0.71 94 1005.3
20260507151016 9 135 1.6 6.4 0.08 0.71 0.71 94 1004.9
20260507150516 9 135 1.6 12.9 0.10 0.71 0.71 94 1004.8
20260507150015 9 180 3.2 9.7 0.08 0.69 0.69 94 1004.9
20260507145516 9 135 3.2 16.1 0.08 0.66 0.66 94 1004.9
20260507145016 9 203 3.2 9.7 0.05 0.64 0.66 94 1005.1
20260507144516 9 135 3.2 11.3 0.05 0.64 0.64 94 1005.3
20260507144016 9 158 3.2 8.0 0.05 0.61 0.61 94 1005.3
20260507143516 9 158 3.2 9.7 0.05 0.61 0.61 94 1005.4
20260507143016 9 135 3.2 11.3 0.05 0.61 0.61 94 1005.4
20260507142516 9 158 3.2 12.9 0.05 0.61 0.61 94 1005.5
20260507142016 9 135 3.2 6.4 0.05 0.61 0.61 94 1005.6
20260507141516 9 135 4.8 19.3 0.05 0.61 0.61 94 1005.7
20260507141016 9 158 3.2 9.7 0.05 0.61 0.61 94 1005.3
20260507140515 9 135 4.8 11.3 0.05 0.61 0.61 94 1005.4
20260507140016 9 225 3.2 20.9 0.05 0.61 0.61 94 1005.8
20260507135515 9 135 4.8 14.5 0.03 0.58 0.58 94 1005.9
20260507135015 9 225 6.4 16.1 0.03 0.58 0.58 94 1005.9
20260507134515 9 158 4.8 20.9 0.03 0.58 0.58 94 1006.1
20260507134016 9 135 3.2 12.9 0.03 0.58 0.58 94 1006.1
20260507133516 9 158 3.2 11.3 0.03 0.58 0.58 94 1006.1
20260507133016 9 158 4.8 17.7 0.05 0.58 0.58 94 1006.1